Home > Weather > Jujuy > Past weeks

Flag for Argentina Past Weather in Jujuy, Jujuy, Argentina — Yesterday and Last 2 Weeks

Now
61 °F

Clear.


Feels Like: 61 °F
Forecast: 45 / 63 °F
Wind: 3 mph from Southwest

Location: Jujuy Aerodrome

Current Time: Jul 26, 2016 at 5:37:03 AM

Latest Report: Jul 26, 2016 at 3:00 AM


Visibility: 10 mi

Pressure: 30.07 "Hg (21.36 "Hg at 2895m altitude)

Humidity: 68%

Dew Point: 50 °F

Location of JujuyLocation

Past Weather in Jujuy — Graph

°F

Jujuy Temperature Yesterday

Maximum temperature yesterday: 79 °F (at 3:00 PM)
Minimum temperature yesterday: 50 °F (at 1:00 AM)
Average temperature yesterday: 61 °F

High & Low Weather Summary for the Past Weeks

 TemperatureHumidityPressure
High79 °F (Jul 24, 4:00 PM)100% (Jul 12, 1:00 AM)30.42 "Hg (Jul 12, 1:00 AM)
Low37 °F (Jul 19, 10:00 PM)30% (Jul 24, 4:00 PM)29.71 "Hg (Jul 11, 3:00 PM)
Average54 °F74%30.06 "Hg
* Reported Jul 11 3:00 AM — Jul 26 3:00 AM, Jujuy, Weather by CustomWeather, © 2016

Note: Actual official high and low records may vary slightly from our data, if they occured in-between our weather recording intervals... More about our weather records

Advertising

Jujuy Weather History for the Previous 24 Hours

Scroll right to see more
 ConditionsComfort  
Time TempWeatherWind HumidityBarometerVisibility
3:00 AM
Tue, Jul 26
61 °FClear.3 mph68%30.07 "Hg10 mi
2:00 AM59 °FClear.3 mph77%30.07 "Hg10 mi
1:00 AM59 °FClear.5 mph77%30.04 "Hg10 mi
12:00 AM55 °FClear.6 mph88%30.04 "Hg10 mi
11:00 PM
Mon, Jul 25
59 °FClear.6 mph77%30.01 "Hg10 mi
10:00 PM61 °FClear.5 mph72%29.98 "Hg10 mi
9:00 PM59 °FClear.No wind82%29.95 "Hg10 mi
8:00 PM66 °FClear.No wind68%29.89 "Hg10 mi
7:00 PM70 °FClear.3 mph57%29.86 "Hg10 mi
6:00 PM73 °FClear.6 mph50%29.83 "Hg10 mi
5:00 PM77 °FSunny.5 mph44%29.77 "Hg10 mi
4:00 PM79 °FSunny.6 mph39%29.77 "Hg10 mi
3:00 PM79 °FSunny.3 mph39%29.77 "Hg10 mi
2:00 PM75 °FSunny.No wind41%29.80 "Hg10 mi
1:00 PM72 °FSunny.5 mph47%29.83 "Hg10 mi
12:00 PM70 °FSunny.5 mph53%29.86 "Hg10 mi
11:00 AM70 °FSunny.3 mph50%29.89 "Hg10 mi
10:00 AM61 °FSunny.9 mph68%29.89 "Hg10 mi
9:00 AM54 °FPassing clouds.7 mph77%29.89 "HgN/A
8:00 AM50 °FSunny.7 mph82%29.89 "Hg10 mi
7:00 AM50 °FSunny.7 mph82%29.86 "Hg10 mi
6:00 AM50 °FClear.7 mph82%29.83 "Hg10 mi
5:00 AM50 °FClear.7 mph82%29.86 "Hg10 mi
Weather by CustomWeather, © 2016

See weather overviewHow to use our weather pages